[[{"header":{"parameterUnit":"m.s-1","parameterCategory":1,"la1":30.2991,"la2":30.254,"lo1":-89.0895,"lo2":-89.0444,"dy":0.0017,"dx":0.0017,"nx":28,"ny":28,"refTime":"2023-10-03T03:00:00:Z","depth":0,"parameterNumber":2,"parameterNumberName":"U-component_of_WINDS"},"data":[0,0,0,0,0,0,0,0,0,0,0,0,0,0,0,0,0,0,0,0,0,0,0,0,0,0,0,0,0,0,0,0,0,0,0,0,0,0,0,0,0,0,0,0,0,0,0,0,0,0,0,0,0,0,0,0,0,0,-4.3171,-4.3172,0,-4.3293,-4.3294,-4.3296,-4.3248,-4.3245,-4.3242,-4.324,-4.3368,-4.3374,-4.338,0,0,0,0,0,0,0,0,0,0,0,0,0,-4.2901,-4.2907,-4.3171,-4.3173,-4.3174,-4.3293,-4.3294,-4.3296,-4.3249,-4.3245,-4.3242,-4.3239,-4.3366,-4.3373,-4.3381,0,0,0,0,0,0,0,0,0,0,0,0,0,-4.3021,-4.2908,-4.3171,-4.3165,-4.3165,-4.3292,-4.3294,-4.3297,-4.3249,-4.3245,-4.3241,-4.3237,-4.3364,-4.3373,-4.3382,-4.3523,0,0,-4.3409,-4.3413,0,0,0,0,0,0,0,0,-4.3014,-4.3031,-4.3164,-4.3165,-4.3166,-4.3251,-4.3246,-4.3373,-4.325,-4.3218,-4.324,-4.3235,-4.3333,-4.3344,-4.3377,-4.3529,-4.3535,-4.341,-4.3416,-4.342,-4.3422,0,0,0,0,0,0,0,-4.3006,-4.3025,-4.3219,-4.3166,-4.3167,-4.3157,-4.3169,-4.327,-4.3298,-4.322,-4.3217,-4.3232,-4.3333,-4.3368,-4.3379,-4.3536,-4.341,-4.3418,-4.3424,-4.3427,-4.3814,-4.3818,0,0,0,0,0,0,-4.2997,-4.3018,-4.3215,-4.3223,-4.3078,-4.3166,-4.3179,-4.3228,-4.3296,-4.3303,-4.3235,-4.3229,-4.3354,-4.3369,-4.3384,-4.3555,-4.342,-4.3428,-4.3433,-4.3809,-4.3815,-4.382,0,0,0,0,0,0,-4.2991,-4.3015,-4.3211,-4.312,-4.3144,-4.3175,-4.323,-4.3233,-4.3268,-4.3308,-4.3313,-4.3266,-4.3352,-4.3371,-4.3489,-4.3559,-4.3432,-4.344,-4.3803,-4.3811,-4.3817,-4.3899,0,0,0,0,0,0,-4.2983,-4.3013,-4.3066,-4.3121,-4.3149,-4.3313,-4.3234,-4.3238,-4.3283,-4.3276,-4.3338,-4.3344,-4.335,-4.3476,-4.3498,-4.3569,-4.3448,-4.3797,-4.3807,-4.3815,-4.389,-4.3908,-4.3923,0,0,0,0,0,-4.2974,-4.3084,-4.3069,-4.3093,-4.3216,-4.3317,-4.3333,-4.3336,-4.3289,-4.3343,-4.337,-4.3342,-4.3547,-4.3488,-4.3513,-4.3588,-4.3793,-4.3804,-4.3814,-4.3882,-4.3904,-4.3923,0,0,0,0,0,0,-4.3037,-4.3091,-4.3075,-4.3206,-4.3257,-4.3309,-4.3377,-4.3359,-4.3425,-4.3416,-4.3418,-4.3432,-4.3555,-4.3583,-4.3516,-4.373,-4.3663,-4.368,-4.3707,-4.3728,-4.3744,-4.3735,-4.3455,0,0,0,0,0,-4.3066,-4.3142,-4.3186,-4.3298,-4.3324,-4.3347,-4.3391,-4.3389,-4.3442,-4.3464,-4.3498,-4.3553,-4.3629,-4.368,-4.3753,-4.3894,-4.3908,-4.3958,-4.3974,-4.3987,-4.4002,-4.4081,-4.4104,-4.3855,-4.3855,-4.3855,0,0,-4.3127,-4.3166,-4.3214,-4.3311,-4.3351,-4.3431,-4.3365,-4.3453,-4.3513,-4.3477,-4.3591,-4.3619,-4.368,-4.381,-4.387,-4.3838,-4.4074,-4.4001,-4.4012,-4.4019,-4.4094,-4.4118,-4.4139,-4.3863,-4.3861,-4.386,0,0,-4.3279,-4.3316,-4.3413,-4.3454,-4.3515,-4.3529,-4.3552,-4.3607,-4.3624,-4.3738,-4.3714,-4.3786,-4.3918,-4.3963,-4.4003,-4.4174,-4.4152,-4.4198,-4.4285,-4.4361,-4.4381,-4.4398,-4.4461,-4.4483,-4.4212,-4.4212,-4.4212,0,-4.3347,-4.3466,-4.3466,-4.3557,-4.3601,-4.3572,-4.3672,-4.3712,-4.3794,-4.3826,-4.3788,-4.3954,-4.3993,-4.4134,-4.4176,-4.4209,-4.4238,-4.4191,-4.4378,-4.4395,-4.4412,-4.4471,-4.4495,-4.4217,-4.4216,-4.4216,-4.4215,0,-4.3549,-4.3632,-4.3704,-4.3783,-4.3835,-4.393,-4.3946,-4.3999,-4.3993,-4.4012,-4.413,-4.4175,-4.4257,-4.4291,-4.4286,-4.4433,-4.4411,-4.4376,-4.431,-4.444,-4.4497,-4.452,-4.4225,-4.4223,-4.4221,-4.422,0,0,-4.3744,-4.3822,-4.3848,-4.3884,-4.3949,-4.4015,-4.4109,-4.4188,-4.4235,-4.4293,-4.4373,-4.4486,-4.4454,-4.45,-4.45,-4.4567,-4.4702,-4.4524,-4.4525,-4.4557,-4.4869,-4.4896,-4.4922,-4.4688,-4.4692,-4.4695,-4.4864,0,-4.3902,-4.4066,-4.407,-4.4221,-4.4299,-4.4273,-4.4355,-4.4405,-4.4426,-4.4496,-4.4519,-4.46,-4.4551,-4.4579,-4.4644,-4.4672,-4.4765,-4.4659,-4.4764,-4.4768,-4.4751,-4.4951,-4.4979,-4.5136,-4.4886,-4.489,-4.4892,0,-4.4109,-4.4172,-4.4331,-4.4386,-4.4419,-4.4493,-4.4567,-4.4634,-4.4691,-4.4702,-4.4753,-4.4744,-4.4842,-4.4772,-4.4909,-4.4837,-4.488,-4.4901,-4.4907,-4.4917,-4.4839,-4.4969,-4.5186,-4.521,-4.4927,-4.4924,-4.4922,0,-4.4237,-4.4363,-4.4474,-4.4506,-4.4572,-4.4625,-4.4656,-4.4708,-4.4756,-4.4822,-4.4854,-4.493,-4.4972,-4.5032,-4.5044,-4.4992,-4.5182,-4.5113,-4.5195,-4.5195,-4.5237,-4.5234,-4.5466,-4.5263,-4.5263,-4.5262,-4.5262,0,-4.4414,-4.4513,-4.4533,-4.4602,-4.4712,-4.4716,-4.4825,-4.4852,-4.4899,-4.4974,-4.4957,-4.5028,-4.5039,-4.5113,-4.5123,-4.5236,-4.5255,-4.5268,-4.5269,-4.527,-4.5269,-4.5299,-4.5289,-4.5269,-4.5267,-4.5266,-4.5265,0,-4.4576,-4.4593,-4.4713,-4.4767,-4.4783,-4.4862,-4.4908,-4.4975,-4.4994,-4.5089,-4.5112,-4.5142,-4.5229,-4.5247,-4.535,-4.5357,-4.5491,-4.5482,-4.5472,-4.5471,-4.5553,-4.5546,-4.5813,-4.5849,-4.5622,-4.5624,-4.5626,0,-4.4688,-4.4764,-4.4825,-4.4873,-4.4906,-4.4985,-4.5034,-4.5041,-4.5093,-4.5164,-4.5223,-4.5308,-4.5376,-4.5516,-4.5548,-4.5628,-4.562,-4.5709,-4.5632,-4.5631,-4.5624,-4.5619,-4.5628,-4.5724,-4.5726,-4.5728,-4.573,0,-4.4886,-4.4891,-4.4962,-4.5037,-4.5096,-4.5155,-4.5211,-4.5252,-4.5267,-4.5327,-4.5415,-4.5468,-4.5573,-4.5658,-4.5738,-4.5771,-4.5754,-4.5754,-4.5777,-4.5779,-4.577,-4.5777,-4.5513,-4.5748,-4.5746,-4.5744,-4.5744,-4.5743,-4.5028,-4.5094,-4.5148,-4.5228,-4.5271,-4.5324,-4.539,-4.5417,-4.549,-4.5576,-4.5576,-4.5673,-4.573,-4.5834,-4.5873,-4.595,-4.5922,-4.5956,-4.5965,-4.5973,-4.5981,-4.5758,-4.5964,-4.5964,-4.5963,-4.5963,-4.5963,0,-4.5226,-4.526,-4.5333,-4.5412,-4.5476,-4.5453,-4.5515,-4.557,-4.5655,-4.5708,-4.5776,-4.5878,-4.5961,-4.6,-4.6082,-4.6137,-4.6131,-4.6158,-4.6155,-4.6163,-4.6001,-4.5973,-4.6161,-4.6161,-4.6161,-4.6161,-4.6161,-4.6161,-4.5337,-4.5448,-4.546,-4.5593,-4.5626,-4.572,-4.5758,-4.5808,-4.5851,-4.5965,-4.6033,-4.6058,-4.6107,-4.6192,-4.6268,-4.6278,-4.6309,-4.6341,-4.6347,-4.6194,-4.6174,-4.6155,-4.6129,-4.6347,-4.6347,-4.6503,-4.6504,-4.6505]},{"header":{"parameterUnit":"m.s-1","parameterCategory":1,"la1":30.2991,"la2":30.254,"lo1":-89.0895,"lo2":-89.0444,"dy":0.0017,"dx":0.0017,"nx":28,"ny":28,"refTime":"2023-10-03T03:00:00:Z","depth":0,"parameterNumber":3,"parameterNumberName":"V-component_of_WINDS"},"data":[0,0,0,0,0,0,0,0,0,0,0,0,0,0,0,0,0,0,0,0,0,0,0,0,0,0,0,0,0,0,0,0,0,0,0,0,0,0,0,0,0,0,0,0,0,0,0,0,0,0,0,0,0,0,0,0,0,0,-0.4321,-0.4321,0,-0.4294,-0.4293,-0.4293,-0.4279,-0.4279,-0.4279,-0.4279,-0.4249,-0.4248,-0.4247,0,0,0,0,0,0,0,0,0,0,0,0,0,-0.436,-0.4359,-0.4321,-0.4321,-0.4321,-0.4294,-0.4293,-0.4293,-0.4279,-0.4279,-0.4279,-0.4279,-0.4249,-0.4248,-0.4247,0,0,0,0,0,0,0,0,0,0,0,0,0,-0.4339,-0.4359,-0.4321,-0.431,-0.4309,-0.4294,-0.4293,-0.4293,-0.4279,-0.4279,-0.4279,-0.4279,-0.4249,-0.4248,-0.4247,-0.424,0,0,-0.4243,-0.4243,0,0,0,0,0,0,0,0,-0.434,-0.4337,-0.4312,-0.4311,-0.431,-0.429,-0.4296,-0.4275,-0.4279,-0.429,-0.4279,-0.4279,-0.4262,-0.426,-0.4255,-0.4239,-0.4237,-0.4243,-0.4243,-0.4242,-0.4242,0,0,0,0,0,0,0,-0.4341,-0.4338,-0.431,-0.4312,-0.431,-0.4306,-0.4303,-0.4292,-0.4277,-0.4289,-0.4288,-0.4285,-0.4262,-0.4256,-0.4254,-0.4237,-0.4243,-0.4242,-0.4242,-0.4241,-0.4212,-0.4212,0,0,0,0,0,0,-0.4345,-0.434,-0.4311,-0.431,-0.4325,-0.4305,-0.4302,-0.4296,-0.4277,-0.4274,-0.4285,-0.4285,-0.4258,-0.4255,-0.4253,-0.4243,-0.4242,-0.4241,-0.424,-0.4212,-0.4212,-0.4212,0,0,0,0,0,0,-0.4346,-0.4342,-0.4312,-0.4324,-0.432,-0.4305,-0.4298,-0.4296,-0.429,-0.4274,-0.4271,-0.4283,-0.4258,-0.4255,-0.4243,-0.4242,-0.424,-0.4239,-0.4212,-0.4212,-0.4212,-0.4223,0,0,0,0,0,0,-0.4347,-0.4343,-0.4341,-0.4324,-0.432,-0.4304,-0.4298,-0.4295,-0.4288,-0.4287,-0.427,-0.4268,-0.4258,-0.4245,-0.4242,-0.424,-0.4238,-0.4213,-0.4212,-0.4212,-0.4223,-0.4223,-0.4224,0,0,0,0,0,-0.4348,-0.4345,-0.4341,-0.4337,-0.4317,-0.4304,-0.4301,-0.429,-0.4288,-0.4285,-0.4275,-0.4268,-0.4242,-0.4244,-0.4241,-0.4238,-0.4213,-0.4212,-0.4212,-0.4222,-0.4223,-0.4224,0,0,0,0,0,0,-0.4361,-0.4342,-0.4338,-0.4329,-0.4318,-0.4301,-0.4298,-0.4291,-0.4281,-0.428,-0.4266,-0.4263,-0.4252,-0.4244,-0.4246,-0.423,-0.4227,-0.4226,-0.4235,-0.4236,-0.4236,-0.4239,-0.4237,0,0,0,0,0,-0.4363,-0.4354,-0.4338,-0.4332,-0.4327,-0.4313,-0.4307,-0.43,-0.4288,-0.4283,-0.4272,-0.426,-0.4249,-0.4242,-0.4231,-0.4221,-0.4217,-0.4218,-0.4218,-0.4219,-0.4218,-0.4211,-0.4211,-0.4212,-0.4212,-0.4212,0,0,-0.4366,-0.4355,-0.4351,-0.4334,-0.4325,-0.4316,-0.431,-0.4301,-0.4293,-0.4282,-0.427,-0.4261,-0.4247,-0.4236,-0.4231,-0.4229,-0.4217,-0.4219,-0.4219,-0.4218,-0.4211,-0.4211,-0.4211,-0.4212,-0.4212,-0.4212,0,0,-0.4368,-0.4359,-0.4352,-0.4343,-0.4329,-0.432,-0.4318,-0.4303,-0.4296,-0.4285,-0.4275,-0.4266,-0.4248,-0.4238,-0.4231,-0.4227,-0.422,-0.4224,-0.4227,-0.422,-0.422,-0.422,-0.4218,-0.4217,-0.4224,-0.4224,-0.4224,0,-0.4374,-0.4361,-0.435,-0.4341,-0.4334,-0.4323,-0.4315,-0.4307,-0.429,-0.4284,-0.4283,-0.4259,-0.4249,-0.4235,-0.4234,-0.4228,-0.4225,-0.4226,-0.4221,-0.4221,-0.422,-0.4218,-0.4218,-0.4224,-0.4224,-0.4224,-0.4224,0,-0.4368,-0.4359,-0.4355,-0.4339,-0.4332,-0.4324,-0.431,-0.4304,-0.4297,-0.4287,-0.4275,-0.4262,-0.4248,-0.4244,-0.4237,-0.4229,-0.4228,-0.4224,-0.4221,-0.4221,-0.4219,-0.4218,-0.4225,-0.4225,-0.4224,-0.4224,0,0,-0.4377,-0.4355,-0.4354,-0.4346,-0.433,-0.4322,-0.4313,-0.43,-0.4294,-0.4282,-0.4273,-0.4258,-0.4254,-0.4245,-0.4237,-0.4231,-0.4228,-0.4227,-0.4227,-0.4227,-0.4217,-0.422,-0.4219,-0.4223,-0.4223,-0.4223,-0.4218,0,-0.4376,-0.436,-0.435,-0.4338,-0.4328,-0.4317,-0.4309,-0.4298,-0.4289,-0.4279,-0.4268,-0.4257,-0.4253,-0.4247,-0.4241,-0.423,-0.4226,-0.423,-0.4214,-0.4214,-0.4218,-0.4218,-0.4221,-0.4217,-0.4217,-0.4217,-0.4217,0,-0.4373,-0.4362,-0.4349,-0.4333,-0.4328,-0.4322,-0.4308,-0.4299,-0.4285,-0.4279,-0.4269,-0.426,-0.4249,-0.4247,-0.4231,-0.4234,-0.4227,-0.422,-0.422,-0.4217,-0.4215,-0.4215,-0.4216,-0.4215,-0.4215,-0.4216,-0.4216,0,-0.438,-0.4362,-0.4352,-0.4346,-0.4326,-0.4322,-0.4313,-0.43,-0.4292,-0.428,-0.4274,-0.4261,-0.4253,-0.4242,-0.423,-0.4229,-0.4214,-0.4212,-0.4208,-0.4208,-0.4205,-0.4206,-0.4204,-0.4202,-0.4202,-0.4202,-0.4202,0,-0.438,-0.4372,-0.4355,-0.4348,-0.4339,-0.4326,-0.4317,-0.4308,-0.4295,-0.4286,-0.4276,-0.4267,-0.4251,-0.4241,-0.4231,-0.4218,-0.4215,-0.4209,-0.4206,-0.4209,-0.421,-0.4204,-0.4204,-0.4201,-0.4201,-0.4201,-0.4201,0,-0.4386,-0.4374,-0.4362,-0.4345,-0.434,-0.4334,-0.4319,-0.4312,-0.4302,-0.429,-0.4287,-0.4271,-0.4257,-0.4244,-0.4226,-0.4219,-0.4207,-0.4203,-0.4212,-0.421,-0.4207,-0.4207,-0.4201,-0.4199,-0.4199,-0.4199,-0.4199,0,-0.4387,-0.438,-0.4363,-0.4356,-0.4348,-0.4337,-0.4329,-0.4316,-0.4308,-0.4292,-0.4286,-0.4272,-0.426,-0.4239,-0.4225,-0.4211,-0.4207,-0.4206,-0.4205,-0.4208,-0.4206,-0.4206,-0.4205,-0.4206,-0.4206,-0.4206,-0.4206,0,-0.4388,-0.4383,-0.4372,-0.4359,-0.435,-0.4338,-0.4327,-0.4322,-0.4306,-0.4297,-0.4284,-0.4275,-0.4256,-0.4242,-0.4226,-0.4216,-0.4208,-0.4207,-0.4205,-0.4208,-0.4213,-0.421,-0.4212,-0.4207,-0.4207,-0.4207,-0.4207,-0.4207,-0.4391,-0.4385,-0.4371,-0.4359,-0.4349,-0.4338,-0.4331,-0.432,-0.4308,-0.4292,-0.4285,-0.4271,-0.4256,-0.4234,-0.4225,-0.4213,-0.4211,-0.4208,-0.4208,-0.4207,-0.4208,-0.4215,-0.421,-0.421,-0.421,-0.421,-0.421,0,-0.4392,-0.4382,-0.4371,-0.4356,-0.4346,-0.434,-0.4327,-0.4319,-0.4307,-0.4294,-0.4282,-0.4266,-0.4252,-0.4237,-0.4222,-0.4215,-0.4211,-0.4211,-0.4211,-0.4209,-0.4211,-0.4214,-0.4215,-0.4215,-0.4215,-0.4215,-0.4215,-0.4215,-0.4391,-0.438,-0.4372,-0.4355,-0.4345,-0.4332,-0.4325,-0.4314,-0.4304,-0.4287,-0.4275,-0.4266,-0.4251,-0.4235,-0.4221,-0.4217,-0.4212,-0.4213,-0.4208,-0.421,-0.4209,-0.4209,-0.4211,-0.4212,-0.4212,-0.4207,-0.4207,-0.4207]}]]